owner,sensor,date,latitude,longitude,sea_surface_height_above_sea_level,qcFlag 
TCOON,ioos:station:TCOON:031:1,2014-03-01T00:06:00Z,28.4073,-96.7122,0.443,1111122 
TCOON,ioos:station:TCOON:031:1,2014-03-01T00:42:00Z,28.4073,-96.7122,0.433,1111122 
TCOON,ioos:station:TCOON:031:1,2014-03-01T01:06:00Z,28.4073,-96.7122,0.431,1111122 
TCOON,ioos:station:TCOON:031:1,2014-03-01T01:42:00Z,28.4073,-96.7122,0.436,1111122 
TCOON,ioos:station:TCOON:031:1,2014-03-01T02:06:00Z,28.4073,-96.7122,0.436,1111122 
TCOON,ioos:station:TCOON:031:1,2014-03-01T02:42:00Z,28.4073,-96.7122,0.457,1111122 
TCOON,ioos:station:TCOON:031:1,2014-03-01T03:42:00Z,28.4073,-96.7122,0.492,1111122 
TCOON,ioos:station:TCOON:031:1,2014-03-01T04:06:00Z,28.4073,-96.7122,0.491,1111122 
TCOON,ioos:station:TCOON:031:1,2014-03-01T04:42:00Z,28.4073,-96.7122,0.486,1111122 
TCOON,ioos:station:TCOON:031:1,2014-03-01T05:06:00Z,28.4073,-96.7122,0.48,1111122 
TCOON,ioos:station:TCOON:031:1,2014-03-01T05:42:00Z,28.4073,-96.7122,0.471,1111122 
TCOON,ioos:station:TCOON:031:1,2014-03-01T06:00:00Z,28.4073,-96.7122,0.472,1111122 
TCOON,ioos:station:TCOON:031:1,2014-03-01T06:42:00Z,28.4073,-96.7122,0.462,1111122 
TCOON,ioos:station:TCOON:031:1,2014-03-01T07:06:00Z,28.4073,-96.7122,0.443,1111122 
TCOON,ioos:station:TCOON:031:1,2014-03-01T07:42:00Z,28.4073,-96.7122,0.452,1111122 
TCOON,ioos:station:TCOON:031:1,2014-03-01T08:06:00Z,28.4073,-96.7122,0.454,1111122 
TCOON,ioos:station:TCOON:031:1,2014-03-01T08:42:00Z,28.4073,-96.7122,0.457,1111122 
TCOON,ioos:station:TCOON:031:1,2014-03-01T09:06:00Z,28.4073,-96.7122,0.458,1111122 
TCOON,ioos:station:TCOON:031:1,2014-03-01T09:42:00Z,28.4073,-96.7122,0.447,1111122 
TCOON,ioos:station:TCOON:031:1,2014-03-01T10:06:00Z,28.4073,-96.7122,0.454,1111122 
TCOON,ioos:station:TCOON:031:1,2014-03-01T10:42:00Z,28.4073,-96.7122,0.471,1111122 
TCOON,ioos:station:TCOON:031:1,2014-03-01T11:06:00Z,28.4073,-96.7122,0.467,1111122 
TCOON,ioos:station:TCOON:031:1,2014-03-01T12:06:00Z,28.4073,-96.7122,0.48,1111122 
TCOON,ioos:station:TCOON:031:1,2014-03-01T12:42:00Z,28.4073,-96.7122,0.479,1111122 
TCOON,ioos:station:TCOON:031:1,2014-03-01T13:06:00Z,28.4073,-96.7122,0.453,1111122 
TCOON,ioos:station:TCOON:031:1,2014-03-01T13:42:00Z,28.4073,-96.7122,0.442,1111122 
TCOON,ioos:station:TCOON:031:1,2014-03-01T14:06:00Z,28.4073,-96.7122,0.439,1111122 
TCOON,ioos:station:TCOON:031:1,2014-03-01T14:42:00Z,28.4073,-96.7122,0.444,1111122 
TCOON,ioos:station:TCOON:031:1,2014-03-01T15:06:00Z,28.4073,-96.7122,0.455,1111122 
TCOON,ioos:station:TCOON:031:1,2014-03-01T15:42:00Z,28.4073,-96.7122,0.461,1111122 
TCOON,ioos:station:TCOON:031:1,2014-03-01T16:06:00Z,28.4073,-96.7122,0.469,1111122 
TCOON,ioos:station:TCOON:031:1,2014-03-01T16:42:00Z,28.4073,-96.7122,0.466,1111122 
TCOON,ioos:station:TCOON:031:1,2014-03-01T17:06:00Z,28.4073,-96.7122,0.464,1111122 
TCOON,ioos:station:TCOON:031:1,2014-03-01T17:42:00Z,28.4073,-96.7122,0.48,1111122 
TCOON,ioos:station:TCOON:031:1,2014-03-01T18:06:00Z,28.4073,-96.7122,0.474,1111122 
TCOON,ioos:station:TCOON:031:1,2014-03-01T18:42:00Z,28.4073,-96.7122,0.467,1111122 
TCOON,ioos:station:TCOON:031:1,2014-03-01T19:06:00Z,28.4073,-96.7122,0.474,1111122 
TCOON,ioos:station:TCOON:031:1,2014-03-01T19:42:00Z,28.4073,-96.7122,0.462,1111122 
TCOON,ioos:station:TCOON:031:1,2014-03-01T20:06:00Z,28.4073,-96.7122,0.462,1111122 
TCOON,ioos:station:TCOON:031:1,2014-03-01T20:42:00Z,28.4073,-96.7122,0.448,1111122 
TCOON,ioos:station:TCOON:031:1,2014-03-01T21:06:00Z,28.4073,-96.7122,0.45,1111122 
TCOON,ioos:station:TCOON:031:1,2014-03-01T21:48:00Z,28.4073,-96.7122,0.459,1111122 
TCOON,ioos:station:TCOON:031:1,2014-03-01T22:06:00Z,28.4073,-96.7122,0.467,1111122 
TCOON,ioos:station:TCOON:031:1,2014-03-01T22:48:00Z,28.4073,-96.7122,0.464,1111122 
TCOON,ioos:station:TCOON:031:1,2014-03-01T23:06:00Z,28.4073,-96.7122,0.461,1111122 
TCOON,ioos:station:TCOON:031:1,2014-03-01T23:42:00Z,28.4073,-96.7122,0.455,1111122 
TCOON,ioos:station:TCOON:031:1,2014-03-02T00:06:00Z,28.4073,-96.7122,0.454,1111122 
TCOON,ioos:station:TCOON:031:1,2014-03-02T00:42:00Z,28.4073,-96.7122,0.446,1111122 
TCOON,ioos:station:TCOON:031:1,2014-03-02T01:06:00Z,28.4073,-96.7122,0.441,1111122 
TCOON,ioos:station:TCOON:031:1,2014-03-02T01:42:00Z,28.4073,-96.7122,0.439,1111122 
TCOON,ioos:station:TCOON:031:1,2014-03-02T02:06:00Z,28.4073,-96.7122,0.442,1111122 
TCOON,ioos:station:TCOON:031:1,2014-03-02T02:42:00Z,28.4073,-96.7122,0.435,1111122 
TCOON,ioos:station:TCOON:031:1,2014-03-02T03:06:00Z,28.4073,-96.7122,0.444,1111122 
TCOON,ioos:station:TCOON:031:1,2014-03-02T03:42:00Z,28.4073,-96.7122,0.465,1111122 
TCOON,ioos:station:TCOON:031:1,2014-03-02T04:06:00Z,28.4073,-96.7122,0.454,1111122 
TCOON,ioos:station:TCOON:031:1,2014-03-02T04:42:00Z,28.4073,-96.7122,0.43,1111122 
TCOON,ioos:station:TCOON:031:1,2014-03-02T05:06:00Z,28.4073,-96.7122,0.433,1111122 
TCOON,ioos:station:TCOON:031:1,2014-03-02T05:48:00Z,28.4073,-96.7122,0.445,1111122 
TCOON,ioos:station:TCOON:031:1,2014-03-02T06:00:00Z,28.4073,-96.7122,0.442,1111122 
TCOON,ioos:station:TCOON:031:1,2014-03-02T06:42:00Z,28.4073,-96.7122,0.439,1111122 
TCOON,ioos:station:TCOON:031:1,2014-03-02T07:00:00Z,28.4073,-96.7122,0.438,1111122 
TCOON,ioos:station:TCOON:031:1,2014-03-02T07:42:00Z,28.4073,-96.7122,0.427,1111122 
TCOON,ioos:station:TCOON:031:1,2014-03-02T08:06:00Z,28.4073,-96.7122,0.425,1111122 
TCOON,ioos:station:TCOON:031:1,2014-03-02T08:42:00Z,28.4073,-96.7122,0.433,1111122 
TCOON,ioos:station:TCOON:031:1,2014-03-02T09:06:00Z,28.4073,-96.7122,0.435,1111122 
TCOON,ioos:station:TCOON:031:1,2014-03-02T09:42:00Z,28.4073,-96.7122,0.442,1111122 
TCOON,ioos:station:TCOON:031:1,2014-03-02T10:06:00Z,28.4073,-96.7122,0.425,1111122 
TCOON,ioos:station:TCOON:031:1,2014-03-02T10:42:00Z,28.4073,-96.7122,0.43,1111122 
TCOON,ioos:station:TCOON:031:1,2014-03-02T11:06:00Z,28.4073,-96.7122,0.439,1111122 
TCOON,ioos:station:TCOON:031:1,2014-03-02T11:42:00Z,28.4073,-96.7122,0.446,1111122 
TCOON,ioos:station:TCOON:031:1,2014-03-02T12:06:00Z,28.4073,-96.7122,0.453,1111122 
TCOON,ioos:station:TCOON:031:1,2014-03-02T12:42:00Z,28.4073,-96.7122,0.449,1111122 
TCOON,ioos:station:TCOON:031:1,2014-03-02T13:06:00Z,28.4073,-96.7122,0.452,1111122 
TCOON,ioos:station:TCOON:031:1,2014-03-02T13:42:00Z,28.4073,-96.7122,0.442,1111122 
TCOON,ioos:station:TCOON:031:1,2014-03-02T14:06:00Z,28.4073,-96.7122,0.445,1111122 
TCOON,ioos:station:TCOON:031:1,2014-03-02T14:42:00Z,28.4073,-96.7122,0.447,1111122 
TCOON,ioos:station:TCOON:031:1,2014-03-02T15:06:00Z,28.4073,-96.7122,0.446,1111122 
TCOON,ioos:station:TCOON:031:1,2014-03-02T15:42:00Z,28.4073,-96.7122,0.459,1111122 
TCOON,ioos:station:TCOON:031:1,2014-03-02T16:06:00Z,28.4073,-96.7122,0.468,1111122 
TCOON,ioos:station:TCOON:031:1,2014-03-02T16:42:00Z,28.4073,-96.7122,0.48,1111122 
TCOON,ioos:station:TCOON:031:1,2014-03-02T17:06:00Z,28.4073,-96.7122,0.473,1111122 
TCOON,ioos:station:TCOON:031:1,2014-03-02T17:42:00Z,28.4073,-96.7122,0.473,1111122 
TCOON,ioos:station:TCOON:031:1,2014-03-02T18:06:00Z,28.4073,-96.7122,0.474,1111122 
TCOON,ioos:station:TCOON:031:1,2014-03-02T18:42:00Z,28.4073,-96.7122,0.485,1111122 
TCOON,ioos:station:TCOON:031:1,2014-03-02T19:06:00Z,28.4073,-96.7122,0.491,1111122 
TCOON,ioos:station:TCOON:031:1,2014-03-02T19:42:00Z,28.4073,-96.7122,0.48,1111122 
TCOON,ioos:station:TCOON:031:1,2014-03-02T20:06:00Z,28.4073,-96.7122,0.474,1111122 
TCOON,ioos:station:TCOON:031:1,2014-03-02T20:42:00Z,28.4073,-96.7122,0.476,1111122 
TCOON,ioos:station:TCOON:031:1,2014-03-02T21:06:00Z,28.4073,-96.7122,0.45,1111122 
TCOON,ioos:station:TCOON:031:1,2014-03-02T21:48:00Z,28.4073,-96.7122,0.417,1111122 
TCOON,ioos:station:TCOON:031:1,2014-03-02T22:06:00Z,28.4073,-96.7122,0.423,1111122 
TCOON,ioos:station:TCOON:031:1,2014-03-02T22:42:00Z,28.4073,-96.7122,0.465,1111122 
TCOON,ioos:station:TCOON:031:1,2014-03-02T23:06:00Z,28.4073,-96.7122,0.468,1111122 
TCOON,ioos:station:TCOON:031:1,2014-03-02T23:48:00Z,28.4073,-96.7122,0.438,1111122 
TCOON,ioos:station:TCOON:031:1,2014-03-03T00:06:00Z,28.4073,-96.7122,0.413,1111122 
TCOON,ioos:station:TCOON:031:1,2014-03-03T00:42:00Z,28.4073,-96.7122,0.283,1111122 
TCOON,ioos:station:TCOON:031:1,2014-03-03T01:06:00Z,28.4073,-96.7122,0.221,1111122 
TCOON,ioos:station:TCOON:031:1,2014-03-03T01:42:00Z,28.4073,-96.7122,0.097,1111122 
TCOON,ioos:station:TCOON:031:1,2014-03-03T02:06:00Z,28.4073,-96.7122,0.045,1111122 
TCOON,ioos:station:TCOON:031:1,2014-03-03T02:42:00Z,28.4073,-96.7122,0.078,1111122 
TCOON,ioos:station:TCOON:031:1,2014-03-03T03:06:00Z,28.4073,-96.7122,0.091,1111122 
TCOON,ioos:station:TCOON:031:1,2014-03-03T03:42:00Z,28.4073,-96.7122,0.119,1111122 
TCOON,ioos:station:TCOON:031:1,2014-03-03T04:06:00Z,28.4073,-96.7122,0.161,1111122 
TCOON,ioos:station:TCOON:031:1,2014-03-03T04:42:00Z,28.4073,-96.7122,0.121,1111122 
TCOON,ioos:station:TCOON:031:1,2014-03-03T05:06:00Z,28.4073,-96.7122,0.156,1111122 
TCOON,ioos:station:TCOON:031:1,2014-03-03T06:06:00Z,28.4073,-96.7122,0.134,1111122 
TCOON,ioos:station:TCOON:031:1,2014-03-03T06:42:00Z,28.4073,-96.7122,0.231,1111122 
TCOON,ioos:station:TCOON:031:1,2014-03-03T07:06:00Z,28.4073,-96.7122,0.211,1111122 
TCOON,ioos:station:TCOON:031:1,2014-03-03T07:42:00Z,28.4073,-96.7122,0.156,1111122 
TCOON,ioos:station:TCOON:031:1,2014-03-03T08:00:00Z,28.4073,-96.7122,0.145,1111122 
TCOON,ioos:station:TCOON:031:1,2014-03-03T08:42:00Z,28.4073,-96.7122,0.115,1111122 
TCOON,ioos:station:TCOON:031:1,2014-03-03T09:06:00Z,28.4073,-96.7122,0.122,1111122 
TCOON,ioos:station:TCOON:031:1,2014-03-03T09:42:00Z,28.4073,-96.7122,0.097,1111122 
TCOON,ioos:station:TCOON:031:1,2014-03-03T10:06:00Z,28.4073,-96.7122,0.105,1111122 
TCOON,ioos:station:TCOON:031:1,2014-03-03T10:42:00Z,28.4073,-96.7122,0.135,1111122 
TCOON,ioos:station:TCOON:031:1,2014-03-03T11:06:00Z,28.4073,-96.7122,0.113,1111122 
TCOON,ioos:station:TCOON:031:1,2014-03-03T11:42:00Z,28.4073,-96.7122,0.077,1111122 
TCOON,ioos:station:TCOON:031:1,2014-03-03T12:06:00Z,28.4073,-96.7122,0.109,1111122 
TCOON,ioos:station:TCOON:031:1,2014-03-03T12:42:00Z,28.4073,-96.7122,0.149,1111122 
TCOON,ioos:station:TCOON:031:1,2014-03-03T13:06:00Z,28.4073,-96.7122,0.068,1111122 
TCOON,ioos:station:TCOON:031:1,2014-03-03T13:42:00Z,28.4073,-96.7122,0.067,1111122 
TCOON,ioos:station:TCOON:031:1,2014-03-03T14:06:00Z,28.4073,-96.7122,0.112,1111122 
TCOON,ioos:station:TCOON:031:1,2014-03-03T14:42:00Z,28.4073,-96.7122,0.076,1111122 
TCOON,ioos:station:TCOON:031:1,2014-03-03T15:06:00Z,28.4073,-96.7122,0.112,1111122 
TCOON,ioos:station:TCOON:031:1,2014-03-03T15:42:00Z,28.4073,-96.7122,0.175,1111122 
TCOON,ioos:station:TCOON:031:1,2014-03-03T16:06:00Z,28.4073,-96.7122,0.176,1111122 
TCOON,ioos:station:TCOON:031:1,2014-03-03T16:42:00Z,28.4073,-96.7122,0.195,1111122 
TCOON,ioos:station:TCOON:031:1,2014-03-03T17:06:00Z,28.4073,-96.7122,0.211,1111122 
TCOON,ioos:station:TCOON:031:1,2014-03-03T17:42:00Z,28.4073,-96.7122,0.235,1111122 
TCOON,ioos:station:TCOON:031:1,2014-03-03T18:06:00Z,28.4073,-96.7122,0.236,1111122 
TCOON,ioos:station:TCOON:031:1,2014-03-03T18:42:00Z,28.4073,-96.7122,0.216,1111122 
TCOON,ioos:station:TCOON:031:1,2014-03-03T19:06:00Z,28.4073,-96.7122,0.186,1111122 
TCOON,ioos:station:TCOON:031:1,2014-03-03T19:42:00Z,28.4073,-96.7122,0.227,1111122 
TCOON,ioos:station:TCOON:031:1,2014-03-03T20:06:00Z,28.4073,-96.7122,0.21,1111122 
TCOON,ioos:station:TCOON:031:1,2014-03-03T20:42:00Z,28.4073,-96.7122,0.244,1111122 
TCOON,ioos:station:TCOON:031:1,2014-03-03T21:06:00Z,28.4073,-96.7122,0.256,1111122 
TCOON,ioos:station:TCOON:031:1,2014-03-03T21:42:00Z,28.4073,-96.7122,0.26,1111122 
TCOON,ioos:station:TCOON:031:1,2014-03-03T22:06:00Z,28.4073,-96.7122,0.263,1111122 
TCOON,ioos:station:TCOON:031:1,2014-03-03T22:42:00Z,28.4073,-96.7122,0.267,1111122 
TCOON,ioos:station:TCOON:031:1,2014-03-03T23:06:00Z,28.4073,-96.7122,0.274,1111122 
TCOON,ioos:station:TCOON:031:1,2014-03-03T23:42:00Z,28.4073,-96.7122,0.268,1111122 
TCOON,ioos:station:TCOON:031:1,2014-03-04T00:06:00Z,28.4073,-96.7122,0.255,1111122 
TCOON,ioos:station:TCOON:031:1,2014-03-04T00:42:00Z,28.4073,-96.7122,0.277,1111122 
TCOON,ioos:station:TCOON:031:1,2014-03-04T01:06:00Z,28.4073,-96.7122,0.279,1111122 
TCOON,ioos:station:TCOON:031:1,2014-03-04T01:42:00Z,28.4073,-96.7122,0.291,1111122 
TCOON,ioos:station:TCOON:031:1,2014-03-04T02:06:00Z,28.4073,-96.7122,0.274,1111122 
TCOON,ioos:station:TCOON:031:1,2014-03-04T02:42:00Z,28.4073,-96.7122,0.252,1111122 
TCOON,ioos:station:TCOON:031:1,2014-03-04T03:06:00Z,28.4073,-96.7122,0.24,1111122 
TCOON,ioos:station:TCOON:031:1,2014-03-04T03:42:00Z,28.4073,-96.7122,0.216,1111122 
TCOON,ioos:station:TCOON:031:1,2014-03-04T04:06:00Z,28.4073,-96.7122,0.226,1111122 
TCOON,ioos:station:TCOON:031:1,2014-03-04T04:48:00Z,28.4073,-96.7122,0.23,1111122 
TCOON,ioos:station:TCOON:031:1,2014-03-04T05:06:00Z,28.4073,-96.7122,0.222,1111122 
TCOON,ioos:station:TCOON:031:1,2014-03-04T05:42:00Z,28.4073,-96.7122,0.245,1111122 
TCOON,ioos:station:TCOON:031:1,2014-03-04T06:00:00Z,28.4073,-96.7122,0.24,1111122 
TCOON,ioos:station:TCOON:031:1,2014-03-04T06:42:00Z,28.4073,-96.7122,0.249,1111122 
TCOON,ioos:station:TCOON:031:1,2014-03-04T07:06:00Z,28.4073,-96.7122,0.262,1111122 
TCOON,ioos:station:TCOON:031:1,2014-03-04T07:42:00Z,28.4073,-96.7122,0.28,1111122 
TCOON,ioos:station:TCOON:031:1,2014-03-04T08:06:00Z,28.4073,-96.7122,0.31,1111122 
TCOON,ioos:station:TCOON:031:1,2014-03-04T08:42:00Z,28.4073,-96.7122,0.283,1111122 
TCOON,ioos:station:TCOON:031:1,2014-03-04T09:06:00Z,28.4073,-96.7122,0.295,1111122 
TCOON,ioos:station:TCOON:031:1,2014-03-04T09:42:00Z,28.4073,-96.7122,0.239,1111122 
TCOON,ioos:station:TCOON:031:1,2014-03-04T10:06:00Z,28.4073,-96.7122,0.219,1111122 
TCOON,ioos:station:TCOON:031:1,2014-03-04T10:42:00Z,28.4073,-96.7122,0.243,1111122 
TCOON,ioos:station:TCOON:031:1,2014-03-04T11:06:00Z,28.4073,-96.7122,0.339,1111122 
TCOON,ioos:station:TCOON:031:1,2014-03-04T11:42:00Z,28.4073,-96.7122,0.307,1111122 
TCOON,ioos:station:TCOON:031:1,2014-03-04T12:06:00Z,28.4073,-96.7122,0.25,1111122 
TCOON,ioos:station:TCOON:031:1,2014-03-04T12:42:00Z,28.4073,-96.7122,0.254,1111122 
TCOON,ioos:station:TCOON:031:1,2014-03-04T13:06:00Z,28.4073,-96.7122,0.231,1111122 
TCOON,ioos:station:TCOON:031:1,2014-03-04T13:48:00Z,28.4073,-96.7122,0.164,1111122 
TCOON,ioos:station:TCOON:031:1,2014-03-04T14:00:00Z,28.4073,-96.7122,0.175,1111122 
TCOON,ioos:station:TCOON:031:1,2014-03-04T14:42:00Z,28.4073,-96.7122,0.237,1111122 
TCOON,ioos:station:TCOON:031:1,2014-03-04T15:06:00Z,28.4073,-96.7122,0.259,1111122 
TCOON,ioos:station:TCOON:031:1,2014-03-04T15:42:00Z,28.4073,-96.7122,0.303,1111122 
TCOON,ioos:station:TCOON:031:1,2014-03-04T16:06:00Z,28.4073,-96.7122,0.329,1111122 
TCOON,ioos:station:TCOON:031:1,2014-03-04T16:42:00Z,28.4073,-96.7122,0.333,1111122 
TCOON,ioos:station:TCOON:031:1,2014-03-04T17:06:00Z,28.4073,-96.7122,0.345,1111122 
TCOON,ioos:station:TCOON:031:1,2014-03-04T17:42:00Z,28.4073,-96.7122,0.305,1111122 
TCOON,ioos:station:TCOON:031:1,2014-03-04T18:06:00Z,28.4073,-96.7122,0.284,1111122 
TCOON,ioos:station:TCOON:031:1,2014-03-04T18:48:00Z,28.4073,-96.7122,0.284,1111122 
TCOON,ioos:station:TCOON:031:1,2014-03-04T19:06:00Z,28.4073,-96.7122,0.293,1111122 
TCOON,ioos:station:TCOON:031:1,2014-03-04T19:48:00Z,28.4073,-96.7122,0.313,1111122 
TCOON,ioos:station:TCOON:031:1,2014-03-04T20:06:00Z,28.4073,-96.7122,0.319,1111122 
TCOON,ioos:station:TCOON:031:1,2014-03-04T20:48:00Z,28.4073,-96.7122,0.332,1111122 
TCOON,ioos:station:TCOON:031:1,2014-03-04T21:06:00Z,28.4073,-96.7122,0.319,1111122 
TCOON,ioos:station:TCOON:031:1,2014-03-04T21:48:00Z,28.4073,-96.7122,0.33,1111122 
TCOON,ioos:station:TCOON:031:1,2014-03-04T22:06:00Z,28.4073,-96.7122,0.332,1111122 
TCOON,ioos:station:TCOON:031:1,2014-03-04T22:48:00Z,28.4073,-96.7122,0.328,1111122 
TCOON,ioos:station:TCOON:031:1,2014-03-04T23:06:00Z,28.4073,-96.7122,0.337,1111122 
TCOON,ioos:station:TCOON:031:1,2014-03-04T23:48:00Z,28.4073,-96.7122,0.338,1111122 
TCOON,ioos:station:TCOON:031:1,2014-03-05T00:00:00Z,28.4073,-96.7122,0.343,1111122 
TCOON,ioos:station:TCOON:031:1,2014-03-05T00:42:00Z,28.4073,-96.7122,0.35,1111122 
TCOON,ioos:station:TCOON:031:1,2014-03-06T15:06:00Z,28.4073,-96.7122,0.296,1111122 
TCOON,ioos:station:TCOON:031:1,2014-03-06T15:42:00Z,28.4073,-96.7122,0.301,1111122 
TCOON,ioos:station:TCOON:031:1,2014-03-06T16:42:00Z,28.4073,-96.7122,0.311,1111122 
TCOON,ioos:station:TCOON:031:1,2014-03-06T17:00:00Z,28.4073,-96.7122,0.355,1111122 
TCOON,ioos:station:TCOON:031:1,2014-03-06T17:42:00Z,28.4073,-96.7122,0.382,1111122 
TCOON,ioos:station:TCOON:031:1,2014-03-06T18:00:00Z,28.4073,-96.7122,0.377,1111122 
TCOON,ioos:station:TCOON:031:1,2014-03-06T18:42:00Z,28.4073,-96.7122,0.4,1111122 
TCOON,ioos:station:TCOON:031:1,2014-03-06T19:00:00Z,28.4073,-96.7122,0.406,1111122 
TCOON,ioos:station:TCOON:031:1,2014-03-06T19:42:00Z,28.4073,-96.7122,0.398,1111122 
TCOON,ioos:station:TCOON:031:1,2014-03-06T20:00:00Z,28.4073,-96.7122,0.397,1111122 
TCOON,ioos:station:TCOON:031:1,2014-03-06T20:42:00Z,28.4073,-96.7122,0.405,1111122 
TCOON,ioos:station:TCOON:031:1,2014-03-06T21:00:00Z,28.4073,-96.7122,0.397,1111122 
TCOON,ioos:station:TCOON:031:1,2014-03-06T21:42:00Z,28.4073,-96.7122,0.392,1111122 
TCOON,ioos:station:TCOON:031:1,2014-03-06T22:00:00Z,28.4073,-96.7122,0.391,1111122 
TCOON,ioos:station:TCOON:031:1,2014-03-06T22:42:00Z,28.4073,-96.7122,0.398,1111122 
TCOON,ioos:station:TCOON:031:1,2014-03-06T23:00:00Z,28.4073,-96.7122,0.408,1111122 
TCOON,ioos:station:TCOON:031:1,2014-03-06T23:42:00Z,28.4073,-96.7122,0.415,1111122 
TCOON,ioos:station:TCOON:031:1,2014-03-07T00:00:00Z,28.4073,-96.7122,0.415,1111122 
TCOON,ioos:station:TCOON:031:1,2014-03-07T00:42:00Z,28.4073,-96.7122,0.408,1111122 
TCOON,ioos:station:TCOON:031:1,2014-03-07T01:00:00Z,28.4073,-96.7122,0.401,1111122 
TCOON,ioos:station:TCOON:031:1,2014-03-07T01:42:00Z,28.4073,-96.7122,0.407,1111122 
TCOON,ioos:station:TCOON:031:1,2014-03-07T02:00:00Z,28.4073,-96.7122,0.406,1111122 
TCOON,ioos:station:TCOON:031:1,2014-03-07T02:42:00Z,28.4073,-96.7122,0.412,1111122 
TCOON,ioos:station:TCOON:031:1,2014-03-07T03:00:00Z,28.4073,-96.7122,0.408,1111122 
TCOON,ioos:station:TCOON:031:1,2014-03-07T03:42:00Z,28.4073,-96.7122,0.404,1111122 
TCOON,ioos:station:TCOON:031:1,2014-03-07T04:00:00Z,28.4073,-96.7122,0.401,1111122 
TCOON,ioos:station:TCOON:031:1,2014-03-07T04:42:00Z,28.4073,-96.7122,0.408,1111122 
TCOON,ioos:station:TCOON:031:1,2014-03-07T05:00:00Z,28.4073,-96.7122,0.405,1111122 
TCOON,ioos:station:TCOON:031:1,2014-03-07T05:48:00Z,28.4073,-96.7122,0.409,1111122 
TCOON,ioos:station:TCOON:031:1,2014-03-07T05:54:00Z,28.4073,-96.7122,0.408,1111122 
TCOON,ioos:station:TCOON:031:1,2014-03-07T06:42:00Z,28.4073,-96.7122,0.398,1111122 
TCOON,ioos:station:TCOON:031:1,2014-03-07T07:00:00Z,28.4073,-96.7122,0.399,1111122 
TCOON,ioos:station:TCOON:031:1,2014-03-07T07:42:00Z,28.4073,-96.7122,0.403,1111122 
TCOON,ioos:station:TCOON:031:1,2014-03-07T08:00:00Z,28.4073,-96.7122,0.397,1111122 
TCOON,ioos:station:TCOON:031:1,2014-03-07T08:42:00Z,28.4073,-96.7122,0.381,1111122 
TCOON,ioos:station:TCOON:031:1,2014-03-07T09:00:00Z,28.4073,-96.7122,0.383,1111122 
TCOON,ioos:station:TCOON:031:1,2014-03-07T09:42:00Z,28.4073,-96.7122,0.377,1111122 
TCOON,ioos:station:TCOON:031:1,2014-03-07T10:00:00Z,28.4073,-96.7122,0.376,1111122 
TCOON,ioos:station:TCOON:031:1,2014-03-07T10:42:00Z,28.4073,-96.7122,0.38,1111122 
TCOON,ioos:station:TCOON:031:1,2014-03-07T11:00:00Z,28.4073,-96.7122,0.373,1111122 
TCOON,ioos:station:TCOON:031:1,2014-03-07T11:42:00Z,28.4073,-96.7122,0.367,1111122 
TCOON,ioos:station:TCOON:031:1,2014-03-07T12:00:00Z,28.4073,-96.7122,0.366,1111122 
TCOON,ioos:station:TCOON:031:1,2014-03-07T12:42:00Z,28.4073,-96.7122,0.354,1111122 
TCOON,ioos:station:TCOON:031:1,2014-03-07T13:00:00Z,28.4073,-96.7122,0.355,1111122 
TCOON,ioos:station:TCOON:031:1,2014-03-07T13:42:00Z,28.4073,-96.7122,0.352,1111122 
TCOON,ioos:station:TCOON:031:1,2014-03-07T14:06:00Z,28.4073,-96.7122,0.352,1111122 
TCOON,ioos:station:TCOON:031:1,2014-03-07T14:42:00Z,28.4073,-96.7122,0.348,1111122 
TCOON,ioos:station:TCOON:031:1,2014-03-07T15:00:00Z,28.4073,-96.7122,0.34,1111122 
TCOON,ioos:station:TCOON:031:1,2014-03-07T15:42:00Z,28.4073,-96.7122,0.341,1111122 
TCOON,ioos:station:TCOON:031:1,2014-03-07T16:06:00Z,28.4073,-96.7122,0.339,1111122 
TCOON,ioos:station:TCOON:031:1,2014-03-07T16:42:00Z,28.4073,-96.7122,0.338,1111122 
TCOON,ioos:station:TCOON:031:1,2014-03-07T17:06:00Z,28.4073,-96.7122,0.343,1111122 
TCOON,ioos:station:TCOON:031:1,2014-03-07T17:42:00Z,28.4073,-96.7122,0.342,1111122 
TCOON,ioos:station:TCOON:031:1,2014-03-07T18:06:00Z,28.4073,-96.7122,0.34,1111122 
TCOON,ioos:station:TCOON:031:1,2014-03-07T18:42:00Z,28.4073,-96.7122,0.346,1111122 
TCOON,ioos:station:TCOON:031:1,2014-03-07T19:06:00Z,28.4073,-96.7122,0.339,1111122 
TCOON,ioos:station:TCOON:031:1,2014-03-07T19:42:00Z,28.4073,-96.7122,0.348,1111122 
TCOON,ioos:station:TCOON:031:1,2014-03-07T20:06:00Z,28.4073,-96.7122,0.361,1111122 
TCOON,ioos:station:TCOON:031:1,2014-03-07T20:42:00Z,28.4073,-96.7122,0.365,1111122 
TCOON,ioos:station:TCOON:031:1,2014-03-07T21:06:00Z,28.4073,-96.7122,0.368,1111122 
TCOON,ioos:station:TCOON:031:1,2014-03-07T21:42:00Z,28.4073,-96.7122,0.374,1111122 
TCOON,ioos:station:TCOON:031:1,2014-03-07T22:06:00Z,28.4073,-96.7122,0.381,1111122 
TCOON,ioos:station:TCOON:031:1,2014-03-07T22:42:00Z,28.4073,-96.7122,0.38,1111122 
TCOON,ioos:station:TCOON:031:1,2014-03-07T23:06:00Z,28.4073,-96.7122,0.372,1111122 
TCOON,ioos:station:TCOON:031:1,2014-03-07T23:48:00Z,28.4073,-96.7122,0.374,1111122 
TCOON,ioos:station:TCOON:031:1,2014-03-08T00:06:00Z,28.4073,-96.7122,0.369,1111122 
TCOON,ioos:station:TCOON:031:1,2014-03-08T00:42:00Z,28.4073,-96.7122,0.363,1111122 
TCOON,ioos:station:TCOON:031:1,2014-03-08T01:00:00Z,28.4073,-96.7122,0.369,1111122 
TCOON,ioos:station:TCOON:031:1,2014-03-08T01:42:00Z,28.4073,-96.7122,0.371,1111122 
TCOON,ioos:station:TCOON:031:1,2014-03-08T02:06:00Z,28.4073,-96.7122,0.379,1111122 
TCOON,ioos:station:TCOON:031:1,2014-03-08T02:42:00Z,28.4073,-96.7122,0.378,1111122 
TCOON,ioos:station:TCOON:031:1,2014-03-08T03:06:00Z,28.4073,-96.7122,0.379,1111122 
TCOON,ioos:station:TCOON:031:1,2014-03-08T03:42:00Z,28.4073,-96.7122,0.388,1111122 
TCOON,ioos:station:TCOON:031:1,2014-03-08T04:00:00Z,28.4073,-96.7122,0.391,1111122 
TCOON,ioos:station:TCOON:031:1,2014-03-08T04:42:00Z,28.4073,-96.7122,0.387,1111122 
TCOON,ioos:station:TCOON:031:1,2014-03-08T05:00:00Z,28.4073,-96.7122,0.377,1111122 
TCOON,ioos:station:TCOON:031:1,2014-03-08T05:42:00Z,28.4073,-96.7122,0.386,1111122 
TCOON,ioos:station:TCOON:031:1,2014-03-08T06:06:00Z,28.4073,-96.7122,0.384,1111122 
TCOON,ioos:station:TCOON:031:1,2014-03-08T06:42:00Z,28.4073,-96.7122,0.39,1111122 
TCOON,ioos:station:TCOON:031:1,2014-03-08T07:06:00Z,28.4073,-96.7122,0.394,1111122 
TCOON,ioos:station:TCOON:031:1,2014-03-08T07:42:00Z,28.4073,-96.7122,0.386,1111122 
TCOON,ioos:station:TCOON:031:1,2014-03-08T08:06:00Z,28.4073,-96.7122,0.376,1111122 
TCOON,ioos:station:TCOON:031:1,2014-03-08T08:42:00Z,28.4073,-96.7122,0.387,1111122 
TCOON,ioos:station:TCOON:031:1,2014-03-08T09:06:00Z,28.4073,-96.7122,0.392,1111122 
TCOON,ioos:station:TCOON:031:1,2014-03-08T09:42:00Z,28.4073,-96.7122,0.383,1111122 
TCOON,ioos:station:TCOON:031:1,2014-03-08T10:00:00Z,28.4073,-96.7122,0.376,1111122 
TCOON,ioos:station:TCOON:031:1,2014-03-08T10:42:00Z,28.4073,-96.7122,0.37,1111122 
TCOON,ioos:station:TCOON:031:1,2014-03-08T11:06:00Z,28.4073,-96.7122,0.365,1111122 
TCOON,ioos:station:TCOON:031:1,2014-03-08T11:42:00Z,28.4073,-96.7122,0.36,1111122 
TCOON,ioos:station:TCOON:031:1,2014-03-08T12:06:00Z,28.4073,-96.7122,0.358,1111122 
TCOON,ioos:station:TCOON:031:1,2014-03-08T12:42:00Z,28.4073,-96.7122,0.356,1111122 
TCOON,ioos:station:TCOON:031:1,2014-03-08T13:06:00Z,28.4073,-96.7122,0.353,1111122 
TCOON,ioos:station:TCOON:031:1,2014-03-08T13:42:00Z,28.4073,-96.7122,0.346,1111122 
TCOON,ioos:station:TCOON:031:1,2014-03-08T14:00:00Z,28.4073,-96.7122,0.342,1111122 